Lid_Strength_Index
2 1 1 1 1 1 1 2 2 2 2 2 1 2 2 2 1 2 2 2 2 2 2 3 3 3 3 2 2 2 3 4 6 5 4 4 4 4 4 4 5 5 4
2 1 1 1 2 2 2 2 2 2 1 1 1 2 2 1 2 2 2 2 3 3 3 3 3 1 3 3 4 5 5 5 5 6 5 5 5 5 5 5 5 5 5
2 1 2 2 2 2 2 2 2 2 2 2 2 2 2 2 2 2 2 2 3 4 4 4 4 2 3 4 5 6 5 4 5 5 6 5 5 5 5 5 5 5 4
2 2 2 2 2 2 2 2 2 2 2 2 2 2 2 2 2 1 1 2 4 4 4 4 4 3 3 4 5 5 5 5 5 6 5 5 5 5 5 5 6 6 6
2 2 2 2 2 2 2 1 2 2 2 2 2 4 4 3 2 2 1 2 3 3 3 3 4 2 1 2 4 5 5 5 5 5 5 5 6 6 5 5 6 7 6
2 2 2 2 2 2 2 2 2 2 2 2 4 5 5 3 3 2 1 2 2 3 3 3 4 4 3 1 1 2 4 5 6 6 7 7 7 6 5 5 6 6 7
3 2 2 2 2 2 1 2 2 2 2 3 5 5 5 5 4 3 2 3 3 3 3 4 4 3 5 5 3 2 1 2 3 4 5 5 5 4 4 5 5 3 5
2 2 2 2 2 2 1 2 2 2 2 4 4 5 6 5 5 3 2 2 4 4 4 5 6 6 6 7 8 8 7 6 4 3 3 4 5 5 3 3 4 4 4
3 2 2 2 2 2 2 3 2 1 1 2 3 5 6 6 6 4 3 3 4 4 4 5 6 7 5 6 10 11 12 11 6 5 6 5 4 4 4 6 7 5 6
4 4 3 3 2 2 2 2 2 2 2 1 2 4 6 6 6 6 4 3 4 5 6 6 5 7 6 7 10 9 9 9 8 8 7 6 5 5 4 7 7 7 7
3 3 3 3 3 2 2 2 3 2 1 1 2 2 4 6 7 7 7 3 4 5 6 8 9 7 8 7 7 8 7 7 5 6 6 7 6 6 6 7 8 7 8
3 3 3 3 2 2 2 2 2 2 2 2 2 2 2 5 7 8 7 5 4 4 5 6 8 8 9 8 8 6 7 5 6 6 5 5 5 6 6 6 6 6 8
3 4 3 4 3 3 4 3 3 2 2 2 2 3 3 3 6 9 8 7 5 4 4 6 8 10 9 9 8 7 7 7 7 7 7 7 6 5 7 7 7 6 6
3 3 3 3 4 4 4 4 3 2 2 3 3 3 3 3 5 7 7 6 6 5 5 7 8 8 8 7 7 8 7 8 8 8 8 8 8 8 7 9 9 9 8
3 3 3 3 3 5 6 7 7 6 8 4 2 3 4 4 4 7 7 7 7 8 10 10 11 10 9 8 7 8 7 8 8 8 8 8 9 8 9 9 8 8 9
3 4 3 2 2 4 5 5 9 10 12 13 11 6 6 8 9 11 12 11 11 11 10 11 11 10 9 8 7 8 7 6 8 7 9 9 8 9 10 9 8 9 8
4 4 3 3 2 4 5 4 5 7 10 12 13 12 10 9 12 11 12 12 12 10 8 10 10 10 9 8 7 7 7 8 7 7 8 9 8 8 9 9 8 9 8
4 5 4 4 3 3 3 3 3 4 4 4 10 11 14 14 14 13 13 11 9 8 7 8 8 8 9 8 7 6 7 8 8 7 8 8 8 9 9 8 8 8 9
4 4 4 4 4 4 3 3 3 3 4 4 7 10 13 13 13 13 13 7 6 6 6 6 6 6 6 6 5 6 5 6 8 8 7 8 8 9 8 8 7 8 7
3 4 4 4 4 4 3 3 3 4 4 5 6 6 9 11 9 9 9 7 7 8 8 8 6 6 7 6 6 6 6 6 7 7 8 8 8 7 7 7 8 8 8
3 3 4 4 4 4 4 3 3 3 3 3 4 5 10 8 8 8 8 7 6 7 6 6 6 6 6 6 5 5 5 6 6 6 7 8 7 6 6 8 8 7 7
3 3 4 4 4 4 4 3 3 2 2 3 3 5 11 7 6 7 7 6 6 6 5 4 5 5 3 3 4 5 6 6 6 7 7 7 6 7 7 7 6 6 7
2 3 3 4 4 4 4 5 6 6 5 2 2 4 8 7 6 5 5 4 4 4 3 4 3 3 4 3 3 4 5 6 5 5 6 6 7 6 6 6 6 7 7
2 2 2 4 4 4 5 6 6 6 4 4 2 2 6 6 6 5 5 5 5 5 3 4 4 4 5 4 4 4 5 5 5 5 5 5 7 7 7 6 7 7 9
3 2 3 4 4 4 5 4 5 5 4 5 4 4 4 5 5 4 4 5 5 5 5 4 5 4 4 4 8 10 13 14 9 11 7 6 7 8 8 9 8 9 10
3 2 3 3 4 4 4 4 4 4 5 4 4 3 4 4 3 3 4 4 4 3 3 3 3 5 7 9 10 13 14 15 12 12 10 11 11 12 12 10 10 10 10